Вернуться в каталог

DELTA 1 DEB

АктивенUNKNOWN
NORAD 27481·DEBRIS·🇺🇸 United States

Запущен Jul 4, 1968 с Vandenberg Space Force Base

Loading…

Ближайшие Пролёты (ближайшие 24 часа)

TLE

СвежийSource: Space-Track

Эпоха: Sep 6, 2026, 14:04 UTC

1 27481U 68055J   26249.58644068  .00002511  00000-0  36113-2 0  9995
2 27481 120.6793 121.0827 1697337  37.8493 333.0403 11.08674120520994

Отслеживайте DELTA 1 DEB в реальном времени с AllMySat

Download on the App Store